Location: Unspecified
(0.0000°N, 0.0000°E)
Time: 09:44:19
(UTC+00:00)

Explorer 7 - All Passes

Search period start: 29 November 2023 00:00
Search period end: 09 December 2023 00:00
Orbit: 472 x 641 km, 50.3° (Epoch: 29 November)

Date Brightness Start Highest point End Pass type
(mag) Time Alt. Az. Time Alt. Az. Time Alt. Az.
29 Nov - 03:07:57 10° NW 03:12:17 55° SW 03:16:48 10° SSE visible
29 Nov - 13:30:19 10° SE 13:31:19 11° SE 13:32:18 10° ESE daylight
29 Nov - 15:07:33 10° WSW 15:11:09 35° NW 15:14:37 10° NNE daylight
30 Nov - 01:26:18 10° NNE 01:29:04 17° NE 01:31:55 10° E night (unlit)
30 Nov - 03:04:54 10° WNW 03:08:52 32° SW 03:13:00 10° SSE visible
30 Nov - 13:25:06 10° S 13:27:57 18° SE 13:30:42 10° E daylight
30 Nov - 15:04:45 10° WSW 15:07:42 20° NW 15:10:34 10° N daylight
01 Dec - 01:21:58 10° N 01:25:36 27° NE 01:29:24 10° ESE night (unlit)
01 Dec - 03:02:10 10° W 03:05:27 20° SW 03:08:51 10° S visible
01 Dec - 13:20:55 10° SSW 13:24:32 31° SE 13:27:59 10° ENE daylight
01 Dec - 15:02:42 10° WNW 15:04:14 12° NW 15:05:44 10° NNW daylight
02 Dec - 01:18:01 10° NNW 01:22:06 44° NE 01:26:24 10° SE night (unlit)
02 Dec - 03:00:11 10° WSW 03:02:03 12° SW 03:03:56 10° SSW visible
02 Dec - 13:17:04 10° SSW 13:21:04 57° SE 13:24:51 10° NE daylight
03 Dec - 01:14:19 10° NNW 01:18:34 78° NE 01:23:05 10° SE night (unlit)
03 Dec - 13:13:28 10° SW 13:17:33 78° NW 13:21:24 10° NNE daylight
04 Dec - 01:10:50 10° NW 01:15:02 61° SW 01:19:29 10° SSE night (unlit)
04 Dec - 11:33:33 10° SE 11:34:05 10° SE 11:34:38 10° ESE daylight
04 Dec - 13:10:07 10° SW 13:13:59 42° NW 13:17:39 10° NNE daylight
04 Dec - 23:29:33 10° NNE 23:31:45 14° NE 23:34:00 10° E night (unlit)
05 Dec - 01:07:35 10° WNW 01:11:29 35° SW 01:15:36 10° SSE night (unlit)
05 Dec - 11:27:47 10° S 11:30:36 17° SE 11:33:19 10° E daylight
05 Dec - 13:07:03 10° WSW 13:10:23 24° NW 13:13:35 10° N daylight
05 Dec - 23:24:51 10° N 23:28:08 23° NE 23:31:34 10° ESE night (unlit)
06 Dec - 01:04:39 10° WNW 01:07:57 22° SW 01:11:23 10° S night (unlit)
06 Dec - 11:23:23 10° S 11:27:03 29° SE 11:30:34 10° ENE daylight
06 Dec - 13:04:31 10° W 13:06:46 14° NW 13:08:58 10° NNW daylight
06 Dec - 23:20:41 10° NNW 23:24:30 38° NE 23:28:32 10° ESE night (unlit)
07 Dec - 01:02:19 10° W 01:04:24 13° SW 01:06:31 10° SSW night (unlit)
07 Dec - 11:19:20 10° SSW 11:23:28 50° SE 11:27:20 10° NE daylight
07 Dec - 23:16:47 10° NNW 23:20:50 67° NE 23:25:09 10° SE night (unlit)
08 Dec - 11:15:33 10° SW 11:19:48 90° W 11:23:49 10° NE daylight
08 Dec - 23:13:06 10° NW 23:17:09 70° SW 23:21:29 10° SSE night (unlit)
